Location: Oberkirch
(48.5323°N, 8.0787°E)
Time: 01:56:51
(UTC+00:00)

NOSS 3-1 (A) - Pass Details

Date: 08 November 2025
Orbit: 621 x 1586 km, 63.4° (Epoch: 02 December)

Event Time Altitude Azimuth Distance (km) Brightness Sun altitude
Exits shadow 05:07:17 - 223° (SW) 2,908 5.7 -13.1°
Reaches altitude 10° 05:09:17 10° 224° (SW) 2,102 5.0 -12.7°
Maximum altitude 05:14:00 82° 312° (NW) 768 2.9 -12.0°
Drops below altitude 10° 05:19:49 10° 41° (NE) 2,570 6.1 -11.0°
Sets 05:22:38 0° 42° (NE) 3,669 6.9 -10.6°
